User: anonymous   Login
Location: Bamobli
(6.6379°N, 10.9396°W)
Time: 02:12:14
(UTC+00:00)
Language:

Atlas Centaur 2 - Orbit

View from above orbital plane
View from above orbital plane
View from above satellite
View from above satellite

Ground track
Ground track

The orbit data is extracted from the following two-line orbital elements,

1 00694U 63047A   21127.58304821  .00000446  00000-0  46375-4 0  9996
2 00694  30.3550 265.8982 0584783 121.4448 244.4662 14.02794417882641
Epoch (UTC): 07 May 2021 13:59:35
Eccentricity: 0.0584783
inclination: 30.3550°
perigee height: 459 km
apogee height: 1309 km
right ascension of ascending node: 265.8982°
argument of perigee: 121.4448°
revolutions per day: 14.02794417
mean anomaly at epoch: 244.4662°
orbit number at epoch: 88264

The dashed part of the orbit path shows where the satellite is in the earth's shadow,  

DLR